sat.trackr.live / text

‹ back to catalog

STELLA

NORAD 22824 · 1993-061B

PAYLOAD ACTIVE UNKNOWN

§ Identity

Operator
Country
FR
Launch date
1993-09-26
Launch site
FRGUI
Launch vehicle
Mass (kg)
RCS (m²)
0.17

Purposes: science

External: N2YO · Heavens-Above · Gunter

§ Orbital elements

Epoch: 2026-05-25T04:58:37.225056Z

Period
100.88 min
Inclination
98.7735°
Eccentricity
0.0005488
Mean motion
14.27469763 rev/d
Perigee alt
796.3 km
Apogee alt
804.1 km
Semi-major
7,178.3 km
B*
5.4277e-6
RAAN
209.3752°
Arg perigee
310.5093°
Mean anomaly
142.3892°
Rev number
70,149

§ Raw data

STELLA1 22824U 93061B   26145.20737529 -.00000032  00000+0  54277-5 0  99952 22824  98.7735 209.3752 0005488 310.5093 142.3892 14.27469763701492

JSON: /api/v1/satellites/22824 · /tle

For live sub-satellite position, see the globe view (requires WebGL).

§ Visibility from observer

Set your observer location to see the next 7 days of passes ≥ 10°. The values pass through the URL so the page stays shareable.

No JS? Fill the form by hand. The geolocation button needs JavaScript.